Home   Weather   Katowice   Past weeks

Flag for Poland Past Weather in Katowice, Poland — Yesterday and Last 2 Weeks

Now
59 °F

Scattered clouds.


Feels Like: 58 °F
Forecast: 51 / 65 °F
Wind: 6 mph from Southwest

Location: Katowice Airport

Current Time: Aug 20, 2017 at 5:39:14 pm

Latest Report: Aug 20, 2017 at 5:00 pm


Visibility: N/A

Pressure: 30.12 "Hg

Humidity: 88%

Dew Point: 55 °F

Location of KatowiceLocation

Past Weather in Katowice — Graph

°F

Katowice Temperature Yesterday

Maximum temperature yesterday: 73 °F (at 6:30 am)
Minimum temperature yesterday: 59 °F (at 9:30 pm)
Average temperature yesterday: 66 °F

High & Low Weather Summary for the Past Weeks

 TemperatureHumidityPressure
High93 °F (Aug 11, 3:00 pm)100% (Aug 8, 2:30 am)30.27 "Hg (Aug 8, 2:30 am)
Low48 °F (Aug 8, 2:30 am)31% (Aug 16, 3:00 pm)29.74 "Hg (Aug 11, 7:30 pm)
Average68 °F71%30.08 "Hg
* Reported Aug 5 4:00 pm — Aug 20 4:00 pm, Katowice. Weather by CustomWeather, © 2017

Note: Actual official high and low records may vary slightly from our data, if they occured in-between our weather recording intervals... More about our weather records

Advertising

Katowice Weather History for the Previous 24 Hours

Scroll right to see more
 ConditionsComfort  
Time TempWeatherWind HumidityBarometerVisibility
4:00 pm
Sun, Aug 20
57 °FLight rain. Scattered clouds.6 mph88%30.12 "HgN/A
3:30 pm57 °FLight rain. Passing clouds.5 mph88%30.12 "HgN/A
3:00 pm57 °FLight rain. Scattered clouds.5 mph94%30.12 "HgN/A
2:30 pm57 °FLight rain. Scattered clouds.6 mph88%30.12 "HgN/A
2:00 pm57 °FLight rain. Passing clouds.3 mph88%30.12 "HgN/A
1:30 pm57 °FLight rain. Passing clouds.3 mph88%30.12 "HgN/A
1:00 pm55 °FLight rain. Passing clouds.3 mph94%30.12 "HgN/A
12:30 pm55 °FLight rain. Scattered clouds.3 mph94%30.09 "HgN/A
12:00 pm55 °FLight rain. Scattered clouds.6 mph94%30.09 "HgN/A
11:30 am55 °FLight rain. Scattered clouds.8 mph94%30.09 "HgN/A
11:00 am54 °FLight rain. Scattered clouds.7 mph100%30.09 "HgN/A
10:30 am54 °FLight rain. Passing clouds.8 mph94%30.09 "HgN/A
10:00 am54 °FRain. Fog.9 mph100%30.09 "Hg3 mi
9:30 am55 °FRain. Fog.8 mph94%30.09 "Hg3 mi
9:00 am55 °FRain. Fog.9 mph94%30.09 "Hg3 mi
8:30 am55 °FRain. Broken clouds.10 mph100%30.09 "Hg4 mi
8:00 am57 °FLight rain. Fog.7 mph100%30.09 "Hg3 mi
7:30 am57 °FLight rain. Fog.7 mph100%30.07 "Hg2 mi
7:00 am57 °FFog.7 mph100%30.07 "Hg3 mi
6:30 am57 °FFog.2 mph100%30.07 "Hg2 mi
6:00 am57 °FLight rain. Fog.3 mph100%30.07 "Hg1 mi
5:30 am57 °FFog.1 mph100%30.07 "Hg0 mi
5:00 am57 °FFog.1 mph100%30.07 "Hg1 mi
4:30 am57 °FFog.5 mph100%30.07 "Hg0 mi
4:00 am57 °FFog.3 mph100%30.07 "Hg0 mi
3:30 am59 °FFog.3 mph94%30.09 "Hg0 mi
3:00 am59 °FFog.2 mph94%30.09 "Hg0 mi
2:30 am59 °FFog.6 mph94%30.09 "Hg1 mi
2:00 am57 °FFog.3 mph100%30.09 "Hg1 mi
1:30 am57 °FFog.3 mph100%30.09 "Hg1 mi
1:00 am57 °FFog.5 mph100%30.09 "Hg2 mi
12:30 am57 °FFog.2 mph100%30.09 "Hg3 mi
12:00 am57 °FFog.3 mph100%30.12 "Hg0 mi
11:30 pm
Sat, Aug 19
59 °FFog.2 mph94%30.12 "Hg0 mi
11:00 pm59 °FCool.2 mph94%30.09 "Hg1 mi
10:30 pm59 °FPassing clouds.3 mph100%30.12 "HgN/A
10:00 pm59 °FPassing clouds.2 mph100%30.12 "HgN/A
9:30 pm59 °FClear.2 mph100%30.09 "Hg10 mi
9:00 pm61 °FClear.3 mph94%30.12 "Hg10 mi
8:30 pm61 °FClear.6 mph94%30.09 "Hg10 mi
8:00 pm61 °FPassing clouds.5 mph94%30.09 "HgN/A
7:30 pm61 °FPassing clouds.6 mph94%30.09 "HgN/A
7:00 pm63 °FSprinkles. Passing clouds.1 mph88%30.09 "HgN/A
6:30 pm63 °FScattered clouds.1 mph88%30.09 "HgN/A
6:00 pm61 °FSunny.3 mph94%30.09 "Hg10 mi
5:30 pm63 °FPassing clouds.2 mph88%30.09 "HgN/A
5:00 pm63 °FBroken clouds.5 mph88%30.09 "HgN/A
Weather by CustomWeather, © 2017

See weather overviewHow to use our weather pages